Weather History for KBWD - September, 2013

Change the Weather History Date:

Wednesday, September 11, 2013

  Actual Average (KABI) Record (KABI)
Temperature  
Mean Temperature 80 °F 77 °F  
Max Temperature 91 °F 88 °F 105 °F (2000)
Min Temperature 68 °F 66 °F 49 °F (1959)
Degree Days  
Heating Degree Days 0 0  
Month to date heating degree days 0  
Since 1 July heating degree days 0  
Cooling Degree Days 14 12  
Month to date cooling degree days 150  
Year to date cooling degree days 2095  
Growing Degree Days 30 (Base 50)    
Moisture  
Dew Point 63 °F    
Average Humidity 64    
Maximum Humidity 100    
Minimum Humidity 28    
Precipitation  
Precipitation 0.00 in 0.08 in 2.49 in (1989)
Month to date precipitation 0.88  
Year to date precipitation 17.84  
Sea Level Pressure  
Sea Level Pressure 30.10 in    
Wind  
Wind Speed 5 mph (ESE)    
Max Wind Speed 14 mph    
Max Gust Speed 18 mph    
Visibility 10 miles    
Events      
T = Trace of Precipitation, MM = Missing Value Source: NWS Daily Summary

Daily Weather History Graph

Daily Weather History Graph

Search for Another Location

Airport or City:

Trip Planner

Search our weather history database for the weather conditions in past years. The results will help you decide how hot, cold, wet, or windy it might be!

Date:

Astronomy

Sep. 11, 2013 Rise Set
Actual Time 7:17 AM CDT 7:46 PM CDT
Civil Twilight 6:53 AM CDT 8:11 PM CDT
Nautical Twilight 6:24 AM CDT 8:39 PM CDT
Astronomical Twilight 5:55 AM CDT 9:08 PM CDT
Moon 1:24 PM CDT (9/11) No Moon Set
Length of Visible Light 13h 17m
Length of Day
12h 28m
Waxing Crescent, 39% of the Moon is Illuminated
Sep 11
Waxing Crescent
Sep 12
First Quarter
Sep 19
Full
Sep 26
Last Quarter
Oct 4
New

Hourly Weather History & Observations

Time (CDT) Temp. Heat Index Dew Point Humidity Pressure Visibility Wind Dir Wind Speed Gust Speed Precip Events Conditions
12:15 AM 73.4 °F - 68.0 °F 83% 30.10 in 10.0 mi SE 3.5 mph - N/A   Clear
12:35 AM 73.4 °F - 68.0 °F 83% 30.10 in 10.0 mi SE 3.5 mph - N/A   Clear
12:55 AM 71.6 °F - 68.0 °F 88% 30.10 in 10.0 mi Calm Calm - N/A   Clear
1:15 AM 71.6 °F - 68.0 °F 88% 30.10 in 10.0 mi East 3.5 mph - N/A   Clear
1:55 AM 71.6 °F - 68.0 °F 88% 30.11 in 10.0 mi East 3.5 mph - N/A   Clear
2:15 AM 71.6 °F - 68.0 °F 88% 30.11 in 10.0 mi ESE 3.5 mph - N/A   Clear
2:35 AM 71.6 °F - 68.0 °F 88% 30.11 in 10.0 mi ESE 4.6 mph - N/A   Clear
2:55 AM 71.6 °F - 68.0 °F 88% 30.11 in 10.0 mi Calm Calm - N/A   Clear
3:15 AM 71.6 °F - 68.0 °F 88% 30.11 in 10.0 mi East 4.6 mph - N/A   Clear
3:35 AM 71.6 °F - 68.0 °F 88% 30.11 in 10.0 mi East 4.6 mph - N/A   Clear
3:55 AM 71.6 °F - 68.0 °F 88% 30.11 in 10.0 mi ESE 4.6 mph - N/A   Clear
4:15 AM 71.6 °F - 68.0 °F 88% 30.10 in 10.0 mi ESE 3.5 mph - N/A   Clear
4:35 AM 69.8 °F - 68.0 °F 94% 30.11 in 10.0 mi Calm Calm - N/A   Clear
4:55 AM 69.8 °F - 68.0 °F 94% 30.10 in 10.0 mi SE 3.5 mph - N/A   Clear
5:15 AM 69.8 °F - 68.0 °F 94% 30.10 in 10.0 mi ESE 5.8 mph - N/A   Clear
5:35 AM 69.8 °F - 68.0 °F 94% 30.09 in 10.0 mi East 4.6 mph - N/A   Clear
5:55 AM 69.8 °F - 68.0 °F 94% 30.10 in 10.0 mi SE 3.5 mph - N/A   Clear
6:15 AM 69.8 °F - 68.0 °F 94% 30.11 in 10.0 mi Calm Calm - N/A   Clear
6:35 AM 68.0 °F - 66.2 °F 94% 30.11 in 10.0 mi Calm Calm - N/A   Clear
6:55 AM 68.0 °F - 66.2 °F 94% 30.11 in 10.0 mi East 3.5 mph - N/A   Clear
7:15 AM 68.0 °F - 66.2 °F 94% 30.12 in 10.0 mi ESE 3.5 mph - N/A   Clear
7:35 AM 68.0 °F - 68.0 °F 100% 30.12 in 9.0 mi ESE 3.5 mph - N/A   Mostly Cloudy
7:55 AM 71.6 °F - 68.0 °F 88% 30.12 in 10.0 mi SE 5.8 mph - N/A   Overcast
8:15 AM 73.4 °F - 68.0 °F 83% 30.13 in 10.0 mi ESE 4.6 mph - N/A   Scattered Clouds
8:35 AM 73.4 °F - 69.8 °F 88% 30.15 in 10.0 mi SE 5.8 mph - N/A   Clear
8:55 AM 75.2 °F - 69.8 °F 83% 30.15 in 10.0 mi SSE 6.9 mph - N/A   Partly Cloudy
9:15 AM 75.2 °F - 71.6 °F 89% 30.15 in 10.0 mi SSE 6.9 mph - N/A   Scattered Clouds
9:35 AM 75.2 °F - 71.6 °F 89% 30.16 in 10.0 mi SSE 6.9 mph - N/A   Scattered Clouds
9:55 AM 77.0 °F - 69.8 °F 78% 30.16 in 10.0 mi South 8.1 mph - N/A   Scattered Clouds
10:15 AM 77.0 °F - 69.8 °F 78% 30.16 in 10.0 mi SSE 8.1 mph - N/A   Scattered Clouds
10:35 AM 78.8 °F - 69.8 °F 74% 30.16 in 10.0 mi SE 8.1 mph - N/A   Clear
10:55 AM 80.6 °F 83.2 °F 68.0 °F 65% 30.16 in 10.0 mi SSE 8.1 mph - N/A   Clear
11:15 AM 82.4 °F 85.4 °F 68.0 °F 62% 30.16 in 10.0 mi SSE 9.2 mph - N/A   Clear
11:35 AM 82.4 °F 85.4 °F 68.0 °F 62% 30.16 in 10.0 mi South 9.2 mph - N/A   Clear
11:55 AM 82.4 °F 84.6 °F 66.2 °F 58% 30.15 in 10.0 mi SSE 5.8 mph - N/A   Unknown
12:15 PM 82.4 °F 84.6 °F 66.2 °F 58% 30.15 in 10.0 mi ESE 4.6 mph - N/A   Unknown
12:35 PM 84.2 °F 86.6 °F 66.2 °F 55% 30.14 in 10.0 mi SSE 4.6 mph - N/A   Clear
12:55 PM 86.0 °F 87.3 °F 64.4 °F 48% 30.14 in 10.0 mi ESE 5.8 mph - N/A   Unknown
1:15 PM 86.0 °F 87.3 °F 64.4 °F 48% 30.13 in 10.0 mi East 8.1 mph - N/A   Unknown
1:35 PM 87.8 °F 88.5 °F 62.6 °F 43% 30.12 in 10.0 mi South 8.1 mph - N/A   Unknown
1:55 PM 86.0 °F 87.3 °F 64.4 °F 48% 30.11 in 10.0 mi East 4.6 mph - N/A   Unknown
2:15 PM 87.8 °F 88.5 °F 62.6 °F 43% 30.10 in 10.0 mi East 8.1 mph 16.1 mph N/A   Unknown
2:35 PM 87.8 °F 88.5 °F 62.6 °F 43% 30.09 in 10.0 mi SE 4.6 mph - N/A   Unknown
2:55 PM 89.6 °F 88.9 °F 59.0 °F 36% 30.08 in 10.0 mi East 5.8 mph - N/A   Clear
3:15 PM 89.6 °F 88.9 °F 59.0 °F 36% 30.07 in 10.0 mi SE 6.9 mph - N/A   Clear
3:35 PM 91.4 °F 89.9 °F 57.2 °F 31% 30.07 in 10.0 mi SE 6.9 mph 18.4 mph N/A   Clear
3:55 PM 89.6 °F 88.1 °F 57.2 °F 33% 30.06 in 10.0 mi ESE 9.2 mph - N/A   Clear
4:15 PM 91.4 °F 89.4 °F 55.4 °F 29% 30.06 in 10.0 mi SE 10.4 mph 17.3 mph N/A   Clear
4:35 PM 91.4 °F 89.4 °F 55.4 °F 29% 30.05 in 10.0 mi SE 5.8 mph - N/A   Clear
4:55 PM 91.4 °F 89.4 °F 55.4 °F 29% 30.05 in 10.0 mi SE 8.1 mph - N/A   Clear
5:15 PM 91.4 °F 89.4 °F 55.4 °F 29% 30.04 in 10.0 mi East 8.1 mph 16.1 mph N/A   Clear
5:35 PM 91.4 °F 89.1 °F 53.6 °F 28% 30.04 in 10.0 mi SE 9.2 mph 17.3 mph N/A   Clear
5:55 PM 91.4 °F 89.4 °F 55.4 °F 29% 30.04 in 10.0 mi SSE 10.4 mph 17.3 mph N/A   Clear
6:15 PM 89.6 °F 87.3 °F 53.6 °F 29% 30.03 in 10.0 mi ESE 11.5 mph - N/A   Clear
6:35 PM 89.6 °F 87.7 °F 55.4 °F 31% 30.03 in 10.0 mi ESE 11.5 mph 16.1 mph N/A   Clear
6:55 PM 89.6 °F 87.7 °F 55.4 °F 31% 30.03 in 10.0 mi SE 9.2 mph - N/A   Clear
7:15 PM 87.8 °F 86.5 °F 57.2 °F 35% 30.03 in 10.0 mi East 13.8 mph - N/A   Clear
7:35 PM 86.0 °F 84.5 °F 55.4 °F 35% 30.04 in 6.0 mi ESE 9.2 mph - N/A   Haze
7:55 PM 84.2 °F 83.5 °F 57.2 °F 40% 30.04 in 10.0 mi ESE 6.9 mph - N/A   Clear
8:15 PM 82.4 °F 82.0 °F 57.2 °F 42% 30.05 in 10.0 mi ESE 6.9 mph - N/A   Clear
8:35 PM 82.4 °F 82.0 °F 57.2 °F 42% 30.05 in 10.0 mi East 6.9 mph - N/A   Clear
8:55 PM 80.6 °F 81.1 °F 59.0 °F 48% 30.06 in 10.0 mi East 5.8 mph - N/A   Clear
9:15 PM 80.6 °F 81.1 °F 59.0 °F 48% 30.07 in 10.0 mi East 8.1 mph - N/A   Clear
9:35 PM 80.6 °F 81.1 °F 59.0 °F 48% 30.07 in 10.0 mi ESE 6.9 mph - N/A   Clear
9:55 PM 77.0 °F - 59.0 °F 54% 30.08 in 10.0 mi ESE 5.8 mph - N/A   Clear
10:15 PM 77.0 °F - 59.0 °F 54% 30.08 in 10.0 mi ESE 5.8 mph - N/A   Clear
10:35 PM 75.2 °F - 59.0 °F 57% 30.08 in 10.0 mi ESE 5.8 mph - N/A   Clear
10:55 PM 75.2 °F - 59.0 °F 57% 30.08 in 10.0 mi ESE 4.6 mph - N/A   Clear
11:15 PM 75.2 °F - 59.0 °F 57% 30.08 in 10.0 mi Calm Calm - N/A   Clear
11:35 PM 73.4 °F - 59.0 °F 61% 30.08 in 10.0 mi Calm Calm - N/A   Clear
11:55 PM 73.4 °F - 59.0 °F 61% 30.08 in 10.0 mi Calm Calm - N/A   Clear